JE0GNV-13 Weather Reports


time (UTC)temp
C
wind
direction
speed
KPH
gust
KPH
rain 1hr
cm
rain 24hr
cm
rain mn
cm
humidity
%
barometer
mb
20260505205000 7 107 0.0 0.0 0.00 0.00 0.00 90 1019.9
20260505204001 7 107 0.0 0.0 0.00 0.00 0.00 92 1019.9
20260505203000 7 107 0.0 0.0 0.00 0.00 0.00 92 1020.0
20260505202000 7 107 0.0 0.0 0.00 0.00 0.00 92 1020.0
20260505201000 6 107 0.0 0.0 0.00 0.00 0.00 92 1020.0
20260505200000 6 107 0.0 0.0 0.00 0.00 0.00 92 1020.0
20260505195000 6 107 0.0 0.0 0.00 0.00 0.00 92 1020.0
20260505194002 6 107 0.0 0.0 0.00 0.00 0.00 92 1020.0
20260505193001 6 107 0.0 0.0 0.00 0.00 0.00 92 1020.1
20260505192001 6 107 0.0 0.0 0.00 0.00 0.00 94 1020.0
20260505191001 6 107 0.0 0.0 0.00 0.00 0.00 93 1020.0
20260505190001 6 107 0.0 0.0 0.00 0.00 0.00 93 1019.9
20260505185001 6 107 0.0 0.0 0.00 0.00 0.00 93 1019.9
20260505184001 5 107 0.0 0.0 0.00 0.00 0.00 93 1019.9
20260505183001 5 107 0.0 0.0 0.00 0.00 0.00 91 1019.9
20260505182001 6 107 0.0 0.0 0.00 0.00 0.00 91 1019.9
20260505181001 6 107 0.0 0.0 0.00 0.00 0.00 91 1019.9
20260505180001 6 107 0.0 0.0 0.00 0.00 0.00 91 1020.0
20260505175001 6 107 0.0 0.0 0.00 0.00 0.00 91 1019.9
20260505174000 6 107 0.0 0.0 0.00 0.00 0.00 90 1019.9
20260505173001 6 107 0.0 0.0 0.00 0.00 0.00 89 1019.9
20260505172000 6 107 0.0 0.0 0.00 0.00 0.00 88 1019.8
20260505171002 6 107 0.0 0.0 0.00 0.00 0.00 86 1019.8
20260505170001 7 107 0.0 0.0 0.00 0.00 0.00 85 1019.9
20260505165000 7 107 0.0 0.0 0.00 0.00 0.00 84 1019.9
20260505164000 8 107 0.0 0.0 0.00 0.00 0.00 82 1019.9
20260505163002 8 107 0.0 0.0 0.00 0.00 0.00 81 1019.9
20260505162001 8 107 0.0 0.0 0.00 0.00 0.00 79 1020.1
20260505161001 8 107 0.0 0.0 0.00 0.00 0.00 79 1020.1
20260505153001 9 101 0.0 0.0 0.00 0.00 0.00 77 1020.1
20260505152001 9 67 0.0 0.0 0.00 0.00 0.00 77 1020.3
20260505151001 9 131 0.0 0.0 0.00 0.00 0.00 77 1020.4
20260505125001 10 110 0.0 0.0 0.00 0.00 0.00 76 1019.8
20260505124001 10 110 0.0 0.0 0.00 0.00 0.00 75 1019.8
20260505123001 10 110 0.0 0.0 0.00 0.00 0.00 73 1019.7
20260505122001 10 146 0.0 0.0 0.00 0.00 0.00 72 1019.4
20260505121001 11 118 0.0 0.0 0.00 0.00 0.00 71 1019.4
20260505120001 11 139 0.0 0.0 0.00 0.00 0.00 70 1019.2
20260505115001 11 109 0.0 0.0 0.00 0.00 0.00 70 1019.0
20260505114001 11 62 0.0 0.0 0.00 0.00 0.00 70 1019.0
20260505113002 11 249 0.0 0.0 0.00 0.00 0.00 70 1018.8
20260505112001 12 219 0.0 0.0 0.00 0.00 0.00 69 1018.6
20260505111002 12 221 0.0 0.0 0.00 0.00 0.00 69 1018.6
20260505102002 13 209 0.0 0.0 0.00 0.00 0.00 68 1017.5
20260505101002 13 223 0.0 0.0 0.00 0.00 0.00 67 1017.4
20260505100000 14 157 0.0 0.0 0.00 0.00 0.00 66 1017.2
20260505095000 14 204 0.0 0.0 0.00 0.00 0.00 65 1017.0
20260505094002 15 268 0.0 0.0 0.00 0.00 0.00 63 1016.9
20260505093000 15 205 0.0 0.0 0.00 0.00 0.00 63 1016.7
20260505092001 15 144 0.0 0.0 0.00 0.00 0.00 61 1016.6
20260505091000 16 208 0.0 0.0 0.00 0.00 0.00 60 1016.6
20260505090001 16 207 0.0 0.0 0.00 0.00 0.00 59 1016.4
20260505085001 17 212 0.0 0.0 0.00 0.00 0.00 57 1016.3
20260505084000 17 231 0.0 0.0 0.00 0.00 0.00 55 1016.3
20260505083000 18 214 0.0 0.0 0.00 0.00 0.00 53 1016.2
20260505082002 19 103 0.0 0.0 0.00 0.00 0.00 52 1016.0
20260505081002 19 202 0.0 0.0 0.00 0.00 0.00 51 1016.0
20260505080002 19 88 0.0 0.0 0.00 0.00 0.00 48 1015.9
20260505075000 20 137 0.0 0.0 0.00 0.00 0.00 45 1015.7
20260505074000 20 206 0.0 0.0 0.00 0.00 0.00 43 1015.7
20260505073001 21 34 0.0 0.0 0.00 0.00 0.00 40 1015.6
20260505072000 21 133 0.0 0.0 0.00 0.00 0.00 37 1015.4
20260505071000 21 122 0.0 0.0 0.00 0.00 0.00 34 1015.4
20260505070001 21 72 0.0 0.0 0.00 0.00 0.00 35 1015.3
20260505065001 21 65 0.0 0.0 0.00 0.00 0.00 34 1015.4
20260505064000 21 132 0.0 0.0 0.00 0.00 0.00 33 1015.4
20260505063001 21 123 0.0 0.0 0.00 0.00 0.00 32 1015.4
20260505062001 21 146 0.0 0.0 0.00 0.00 0.00 29 1015.4
20260505061000 21 124 0.0 0.0 0.00 0.00 0.00 28 1015.4
20260505060001 21 146 0.0 0.0 0.00 0.00 0.00 30 1015.3
20260505055000 21 150 0.0 0.0 0.00 0.00 0.00 30 1015.3
20260505054000 21 91 0.0 0.0 0.00 0.00 0.00 30 1015.3
20260505053000 21 156 0.0 0.0 0.00 0.00 0.00 28 1015.5
20260505052001 21 165 0.0 0.0 0.00 0.00 0.00 29 1015.6
20260505051000 20 176 0.0 0.0 0.00 0.00 0.00 31 1015.6
20260505041001 19 189 0.0 0.0 0.00 0.00 0.00 32 1016.0
20260505040001 18 102 0.0 0.0 0.00 0.00 0.00 30 1016.1
20260505035001 18 132 0.0 0.0 0.00 0.00 0.00 27 1016.2
20260505034001 18 104 0.0 0.0 0.00 0.00 0.00 29 1016.2
20260505033000 18 145 0.0 0.0 0.00 0.00 0.00 26 1016.4
20260505032000 18 236 0.0 0.0 0.00 0.00 0.00 26 1016.3
20260505031000 17 95 0.0 0.0 0.00 0.00 0.00 30 1016.3
20260505030002 17 178 0.0 0.0 0.00 0.00 0.00 28 1016.4
20260505025001 17 215 0.0 0.0 0.00 0.00 0.00 29 1016.4
20260505024002 17 171 0.0 0.0 0.00 0.00 0.00 30 1016.4
20260505023001 16 102 0.0 0.0 0.00 0.00 0.00 32 1016.5
20260505022001 16 137 0.0 0.0 0.00 0.00 0.00 34 1016.7
20260505021001 16 244 0.0 0.0 0.00 0.00 0.00 26 1016.7
20260505020002 16 155 0.0 0.0 0.00 0.00 0.00 28 1016.8
20260505015000 15 165 0.0 0.0 0.00 0.00 0.00 27 1016.9
20260505014001 15 117 0.0 0.0 0.00 0.00 0.00 31 1016.9
20260505013002 14 287 0.0 0.0 0.00 0.00 0.00 29 1017.1
20260505012000 14 41 0.0 0.0 0.00 0.00 0.00 27 1017.2
20260505011000 14 173 0.0 0.0 0.00 0.00 0.00 33 1017.2
20260505010000 14 188 0.0 0.0 0.00 0.00 0.00 34 1017.2
20260505005000 13 254 0.0 0.0 0.00 0.00 0.00 33 1017.3
20260505004001 13 253 0.0 0.0 0.00 0.00 0.00 34 1017.3
20260505003000 12 139 0.0 0.0 0.00 0.00 0.00 37 1017.2
20260505002001 12 150 0.0 0.0 0.00 0.00 0.00 37 1017.3
20260505001001 11 211 0.0 0.0 0.00 0.00 0.00 41 1017.3
20260505000000 11 111 0.0 0.0 0.00 0.00 0.00 40 1017.1
20260504235000 11 155 0.0 0.0 0.00 0.00 0.00 43 1017.1
20260504234000 10 147 0.0 0.0 0.00 0.00 0.00 43 1017.1
20260504233000 10 280 0.0 0.0 0.00 0.00 0.00 45 1017.1
20260504232001 10 295 0.0 0.0 0.00 0.00 0.00 46 1017.0
20260504231000 9 295 0.0 0.0 0.00 0.00 0.00 45 1017.0
20260504230001 8 302 0.0 0.0 0.00 0.00 0.00 42 1017.0
20260504225001 8 303 0.0 0.0 0.00 0.00 0.00 58 1016.8
20260504224001 7 148 0.0 0.0 0.00 0.00 0.00 67 1016.8
20260504223000 6 137 0.0 0.0 0.00 0.00 0.00 71 1016.7
20260504222002 6 212 0.0 0.0 0.00 0.00 0.00 76 1016.5
20260504221000 5 124 0.0 0.0 0.00 0.00 0.00 79 1016.5
20260504220000 5 203 0.0 0.0 0.00 0.00 0.00 79 1016.5
20260504215000 5 280 0.0 0.0 0.00 0.00 0.00 81 1016.4
20260504214001 5 148 0.0 0.0 0.00 0.00 0.00 82 1016.4
20260504213000 4 9 0.0 0.0 0.00 0.00 0.00 83 1016.2
20260504212001 4 161 0.0 0.0 0.00 0.00 0.00 83 1016.1
20260504211001 3 152 0.0 0.0 0.00 0.05 0.00 84 1016.1
20260504210001 3 152 0.0 0.0 0.00 0.08 0.00 85 1015.7